Location: Unspecified
(0.0000°N, 0.0000°E)
Time: 12:06:34
(UTC+00:00)

Hubble Space Telescope - Pass Details

Date: 08 December 2019
Orbit: 536 x 540 km, 28.5° (Epoch: 10 December)

Event Time Altitude Azimuth Distance (km) Brightness Sun altitude
Exits shadow 04:31:37 15° 227° (SW) 1,518 2.8 -18.4°
Maximum altitude 04:34:58 58° 150° (SSE) 627 1.3 -17.6°
Drops below altitude 10° 04:39:02 10° 70° (ENE) 1,783 4.1 -16.7°
Sets 04:41:19 0° 66° (ENE) 2,672 5.0 -16.2°
